This is the latest recevied weather packets stored in our database for station/object WA1TYB-13. If no packets are shown the sender has not sent any weather packets the latest 10 day(s).
| Time | Temp. | Humidity | Pressure | Rain* | Wind** | Luminosity | Snow |
|---|---|---|---|---|---|---|---|
| 1777484225 | 11.11° C | 46% | 1024.1 hPa | 0 mm | - | 652 W/m² | - |
| 1777483921 | 10.56° C | 49% | 1023.7 hPa | 0 mm | - | 667 W/m² | - |
| 1777483617 | 11.11° C | 48% | 1023.7 hPa | 0 mm | - | 676 W/m² | - |
| 1777483312 | 10.56° C | 50% | 1024.2 hPa | 0 mm | - | 672 W/m² | - |
| 1777483008 | 10.56° C | 47% | 1024.3 hPa | 0 mm | - | 670 W/m² | - |
| 1777482705 | 10.56° C | 50% | 1024.1 hPa | 0 mm | - | 664 W/m² | - |
| 1777482401 | 10° C | 48% | 1024 hPa | 0 mm | - | 640 W/m² | - |
| 1777482099 | 10° C | 50% | 1024.1 hPa | 0 mm | - | 613 W/m² | - |
| 1777481797 | 10° C | 54% | 1024.2 hPa | 0 mm | - | 634 W/m² | - |
| 1777481493 | 10° C | 55% | 1024.1 hPa | 0 mm | - | 634 W/m² | - |
| 1777481190 | 9.44° C | 55% | 1024.3 hPa | 0 mm | - | 433 W/m² | - |
| 1777480887 | 9.44° C | 55% | 1024.3 hPa | 0 mm | - | 616 W/m² | - |
| 1777480583 | 9.44° C | 56% | 1024.3 hPa | 0 mm | - | 652 W/m² | - |
| 1777480280 | 9.44° C | 56% | 1024.2 hPa | 0 mm | - | 665 W/m² | - |
| 1777479976 | 8.89° C | 62% | 1024.2 hPa | 0 mm | - | 627 W/m² | - |
| 1777479673 | 8.89° C | 61% | 1024.2 hPa | 0 mm | - | 596 W/m² | - |
| 1777479372 | 8.89° C | 63% | 1024.1 hPa | 0 mm | - | 576 W/m² | - |
| 1777479067 | 8.33° C | 64% | 1024.4 hPa | 0 mm | - | 597 W/m² | - |
| 1777478764 | 8.33° C | 64% | 1024.3 hPa | 0 mm | - | 588 W/m² | - |
| 1777478460 | 7.78° C | 66% | 1024.5 hPa | 0 mm | - | 508 W/m² | - |
| 1777478157 | 7.22° C | 66% | 1024.1 hPa | 0 mm | - | 447 W/m² | - |
| 1777477854 | 7.22° C | 67% | 1024.4 hPa | 0 mm | - | 331 W/m² | - |
| 1777477549 | 7.22° C | 67% | 1024.6 hPa | 0 mm | - | 277 W/m² | - |
| 1777477246 | 7.22° C | 67% | 1024.4 hPa | 0 mm | - | 270 W/m² | - |
| 1777476942 | 6.67° C | 67% | 1024.2 hPa | 0 mm | - | 340 W/m² | - |
* Rain latest hour (hover to see other rain measurements)
** Current wind speed in m/s (hover to see current wind gust speed)